PROFILE

 METAR AND TAF INFORMATION
ADDS - METARS form results

(0640 UTC 21 September 2018)
http://aviationweather.gov/metar/data/
 
KSAN 210551Z 20003KT 10SM SCT015 19/15 A2996 RMK AO2 SLP144 T01940150 10217 20194 51015
KSAN 210520Z 2106/2212 22009KT P6SM FEW013 FEW060 FM210700 23006KT P6SM OVC016 FM211200 VRB04KT 5SM BR OVC013 FM211900 28008KT P6SM FEW010 FM220300 VRB04KT P6SM OVC012 

 AIRPORT MAP

 RUNWAY INFORMATION
Runway 09 Runway length 9401 ft Runway width 200 ft
Runway elevation 14 ft Runway displaced threshold 700 ft Runway heading 106
Runway 27 Runway length 9401 ft Runway width 200 ft
Runway elevation 13 ft Runway displaced threshold 1810 ft Runway heading 286

 AIRPORT FREQUENCIES
Type A/D Name SOCAL APP/ Frequency 119.6 MHZ
Type ATIS Name ATIS Frequency 134.8 MHZ
Type CLD Name CLNC DEL Frequency 125.9 MHZ
Type GND Name GND Frequency 123.9 MHZ
Type MISC Name CG Frequency 157.15 MHZ
Type MISC Name CG Frequency 898.4 MHZ
Type TWR Name LINDBERGH Frequency 118.3 MHZ
Type UNIC Name UNICOM Frequency 122.95 MHZ

 AIRPORT NEAR NAVIGATION AIDS
Type NDB Name Boing Frequency 245 KHZ